| time (UTC) | temp F | wind direction | speed MPH | gust MPH | rain 1hr in | rain 24hr in | rain mn in | humidity % | barometer mb |
| 20260831161014 | 77 | 360 | 0.0 | 0.0 | 0.01 | 0.59 | 0.03 | 76 | 1042.5 |
| 20260831160012 | 75 | 270 | 0.0 | 0.0 | 0.01 | 0.59 | 0.03 | 79 | 1042.5 |
| 20260831155015 | 74 | 270 | 0.0 | 0.0 | 0.01 | 0.59 | 0.03 | 83 | 1042.5 |
| 20260831154916 | 74 | 270 | 0.0 | 0.0 | 0.01 | 0.59 | 0.03 | 84 | 1042.5 |
| 20260831153015 | 73 | 270 | 0.0 | 0.0 | 0.01 | 0.59 | 0.03 | 92 | 1042.6 |
| 20260831152030 | 72 | 270 | 0.0 | 0.0 | 0.00 | 0.57 | 0.02 | 91 | 1042.6 |
| 20260831151115 | 72 | 225 | 0.0 | 0.0 | 0.00 | 0.57 | 0.02 | 91 | 1042.7 |
| 20260831145312 | 71 | 225 | 0.0 | 0.0 | 0.00 | 0.57 | 0.02 | 94 | 1042.8 |
| 20260831144312 | 71 | 225 | 0.0 | 0.0 | 0.00 | 0.57 | 0.02 | 95 | 1043.0 |
| 20260831143313 | 71 | 225 | 0.0 | 0.0 | 0.00 | 0.57 | 0.02 | 95 | 1043.0 |
| 20260831142313 | 71 | 225 | 0.0 | 0.0 | 0.00 | 0.57 | 0.02 | 94 | 1042.8 |
| 20260831140315 | 71 | 225 | 0.0 | 0.0 | 0.00 | 0.57 | 0.02 | 94 | 1042.8 |
| 20260831135412 | 70 | 157 | 0.0 | 0.0 | 0.00 | 0.57 | 0.02 | 95 | 1042.7 |
| 20260831135315 | 70 | 157 | 0.0 | 0.0 | 0.00 | 0.57 | 0.02 | 94 | 1042.6 |
| 20260831133316 | 70 | 157 | 0.0 | 0.0 | 0.00 | 0.57 | 0.02 | 95 | 1042.9 |
| 20260831132414 | 70 | 157 | 0.0 | 0.0 | 0.00 | 0.57 | 0.02 | 95 | 1042.8 |
| 20260831131514 | 70 | 157 | 0.0 | 0.0 | 0.00 | 0.57 | 0.02 | 94 | 1042.6 |
| 20260831130516 | 70 | 157 | 0.0 | 0.0 | 0.00 | 0.57 | 0.02 | 96 | 1042.9 |
| 20260831125614 | 70 | 135 | 0.0 | 0.0 | 0.00 | 0.57 | 0.02 | 96 | 1042.8 |
| 20260831124613 | 69 | 135 | 0.0 | 0.0 | 0.00 | 0.57 | 0.02 | 96 | 1042.9 |
| 20260831124517 | 69 | 135 | 0.0 | 0.0 | 0.00 | 0.57 | 0.02 | 96 | 1042.9 |
| 20260831123515 | 69 | 135 | 0.0 | 0.0 | 0.00 | 0.57 | 0.02 | 96 | 1042.8 |
| 20260831122515 | 69 | 135 | 0.0 | 0.0 | 0.00 | 0.57 | 0.02 | 95 | 1042.8 |
| 20260831122416 | 69 | 135 | 0.0 | 0.0 | 0.00 | 0.57 | 0.02 | 96 | 1042.7 |
| 20260831121513 | 68 | 135 | 0.0 | 0.0 | 0.00 | 0.57 | 0.02 | 96 | 1042.5 |
| 20260831120514 | 68 | 135 | 0.0 | 0.0 | 0.00 | 0.57 | 0.02 | 96 | 1042.5 |
| 20260831115514 | 67 | 135 | 0.0 | 0.0 | 0.00 | 0.57 | 0.02 | 96 | 1042.6 |
| 20260831114415 | 67 | 135 | 0.0 | 0.0 | 0.00 | 0.57 | 0.02 | 96 | 1042.4 |
| 20260831113414 | 67 | 135 | 0.0 | 0.0 | 0.00 | 0.57 | 0.02 | 96 | 1042.3 |
| 20260831112425 | 67 | 135 | 0.0 | 0.0 | 0.00 | 0.57 | 0.02 | 96 | 1042.3 |
| 20260831111413 | 67 | 135 | 0.0 | 0.0 | 0.00 | 0.57 | 0.02 | 96 | 1042.2 |
| 20260831110415 | 67 | 135 | 0.0 | 0.0 | 0.00 | 0.57 | 0.02 | 95 | 1042.0 |
| 20260831110314 | 67 | 135 | 0.0 | 0.0 | 0.00 | 0.57 | 0.02 | 96 | 1042.0 |
| 20260831110215 | 67 | 135 | 0.0 | 0.0 | 0.00 | 0.57 | 0.02 | 96 | 1041.9 |
| 20260831105215 | 67 | 135 | 0.0 | 0.0 | 0.00 | 0.57 | 0.02 | 96 | 1042.0 |
| 20260831104313 | 67 | 135 | 0.0 | 0.0 | 0.00 | 0.57 | 0.02 | 95 | 1042.2 |
| 20260831104214 | 67 | 135 | 0.0 | 0.0 | 0.00 | 0.57 | 0.02 | 96 | 1042.2 |
| 20260831103114 | 67 | 135 | 0.0 | 0.0 | 0.00 | 0.57 | 0.02 | 96 | 1041.9 |
| 20260831101214 | 67 | 135 | 0.0 | 0.0 | 0.00 | 0.57 | 0.02 | 96 | 1041.9 |
| 20260831100312 | 67 | 135 | 0.0 | 0.0 | 0.00 | 0.57 | 0.02 | 96 | 1041.7 |
| 20260831100216 | 67 | 135 | 0.0 | 0.0 | 0.00 | 0.57 | 0.02 | 96 | 1041.7 |
| 20260831100115 | 67 | 135 | 0.0 | 0.0 | 0.00 | 0.57 | 0.02 | 96 | 1041.6 |
| 20260831094312 | 67 | 135 | 0.0 | 0.0 | 0.00 | 0.57 | 0.02 | 96 | 1041.4 |
| 20260831093315 | 67 | 135 | 0.0 | 0.0 | 0.00 | 0.57 | 0.02 | 96 | 1041.3 |
| 20260831092315 | 68 | 135 | 0.0 | 0.0 | 0.00 | 0.57 | 0.02 | 96 | 1041.2 |
| 20260831091314 | 68 | 135 | 0.0 | 0.0 | 0.00 | 0.57 | 0.02 | 96 | 1041.2 |
| 20260831090313 | 68 | 135 | 0.0 | 0.0 | 0.00 | 0.57 | 0.02 | 95 | 1041.4 |
| 20260831085316 | 68 | 135 | 0.0 | 0.0 | 0.00 | 0.57 | 0.02 | 95 | 1041.4 |
| 20260831084412 | 68 | 135 | 0.0 | 0.0 | 0.00 | 0.57 | 0.02 | 95 | 1041.2 |
| 20260831083430 | 68 | 135 | 0.0 | 0.0 | 0.00 | 0.57 | 0.02 | 95 | 1041.3 |
| 20260831082515 | 69 | 135 | 0.0 | 0.0 | 0.00 | 0.57 | 0.02 | 95 | 1041.5 |
| 20260831081614 | 69 | 135 | 0.0 | 0.0 | 0.00 | 0.57 | 0.02 | 95 | 1041.4 |
| 20260831080614 | 69 | 135 | 0.0 | 0.0 | 0.00 | 0.57 | 0.02 | 95 | 1041.5 |
| 20260831075616 | 69 | 135 | 0.0 | 0.0 | 0.00 | 0.57 | 0.02 | 94 | 1041.4 |
| 20260831074612 | 69 | 135 | 0.0 | 0.0 | 0.00 | 0.57 | 0.02 | 95 | 1041.3 |
| 20260831072615 | 69 | 135 | 0.0 | 0.0 | 0.00 | 0.57 | 0.02 | 95 | 1041.2 |
| 20260831064613 | 69 | 135 | 0.0 | 0.0 | 0.00 | 0.57 | 0.02 | 95 | 1041.4 |
| 20260831063613 | 70 | 135 | 0.0 | 0.0 | 0.00 | 0.57 | 0.02 | 95 | 1041.4 |
| 20260831062614 | 69 | 135 | 0.0 | 0.0 | 0.00 | 0.57 | 0.02 | 95 | 1041.3 |
| 20260831061613 | 69 | 135 | 0.0 | 0.0 | 0.00 | 0.57 | 0.02 | 94 | 1041.3 |
| 20260831060614 | 70 | 135 | 0.0 | 0.0 | 0.00 | 0.57 | 0.02 | 95 | 1041.2 |
| 20260831060515 | 70 | 135 | 0.0 | 0.0 | 0.00 | 0.57 | 0.02 | 95 | 1041.2 |
| 20260831060414 | 70 | 135 | 0.0 | 0.0 | 0.00 | 0.57 | 0.02 | 95 | 1041.1 |
| 20260831055512 | 70 | 135 | 0.0 | 0.0 | 0.00 | 0.57 | 0.02 | 95 | 1041.1 |
| 20260831054514 | 70 | 135 | 0.0 | 0.0 | 0.00 | 0.57 | 0.02 | 94 | 1041.2 |
| 20260831054413 | 70 | 135 | 0.0 | 0.0 | 0.00 | 0.57 | 0.02 | 95 | 1041.2 |
| 20260831053415 | 70 | 135 | 0.0 | 0.0 | 0.00 | 0.57 | 0.02 | 95 | 1041.1 |
| 20260831052416 | 70 | 135 | 0.0 | 0.0 | 0.00 | 0.57 | 0.02 | 94 | 1041.3 |
| 20260831050514 | 70 | 135 | 0.0 | 0.0 | 0.02 | 0.57 | 0.02 | 94 | 1041.3 |
| 20260831045413 | 70 | 135 | 0.0 | 0.0 | 0.02 | 0.57 | 0.02 | 94 | 1041.2 |
| 20260831044413 | 70 | 135 | 0.0 | 0.0 | 0.02 | 0.57 | 0.02 | 94 | 1041.4 |
| 20260831042416 | 70 | 135 | 0.0 | 0.0 | 0.02 | 0.57 | 0.02 | 94 | 1041.7 |
| 20260831042314 | 70 | 135 | 0.0 | 0.0 | 0.02 | 0.57 | 0.02 | 93 | 1041.7 |
| 20260831041315 | 70 | 135 | 0.0 | 0.0 | 0.01 | 0.57 | 0.01 | 94 | 1041.7 |
| 20260831040414 | 70 | 135 | 0.0 | 0.0 | 0.01 | 0.56 | 0.00 | 93 | 1041.6 |
| 20260831040314 | 70 | 135 | 0.0 | 0.0 | 0.01 | 0.56 | 0.00 | 93 | 1041.6 |
| 20260831035317 | 70 | 135 | 0.0 | 0.0 | 0.01 | 0.56 | 0.56 | 93 | 1041.7 |
| 20260831034318 | 70 | 135 | 0.0 | 0.0 | 0.02 | 0.56 | 0.56 | 93 | 1041.8 |
| 20260831033317 | 70 | 135 | 0.0 | 0.0 | 0.31 | 0.56 | 0.56 | 92 | 1041.6 |
| 20260831030218 | 70 | 135 | 0.0 | 0.0 | 0.55 | 0.55 | 0.55 | 91 | 1041.4 |
| 20260831025216 | 71 | 135 | 0.0 | 0.0 | 0.55 | 0.55 | 0.55 | 89 | 1041.3 |
| 20260831024218 | 72 | 135 | 0.0 | 1.0 | 0.53 | 0.53 | 0.52 | 89 | 1041.8 |
| 20260831024119 | 72 | 129 | 0.0 | 0.0 | 0.52 | 0.52 | 0.48 | 90 | 1042.0 |
| 20260831023117 | 74 | 207 | 1.0 | 5.0 | 0.20 | 0.20 | 0.18 | 90 | 1041.5 |
| 20260831022117 | 74 | 182 | 0.0 | 2.0 | 0.01 | 0.01 | 0.01 | 87 | 1041.4 |
| 20260831022017 | 74 | 202 | 0.0 | 1.0 | 0.01 | 0.01 | 0.01 | 87 | 1041.4 |
| 20260831021015 | 74 | 202 | 0.0 | 0.0 | 0.00 | 0.00 | 0.00 | 86 | 1041.3 |
| 20260831020017 | 74 | 202 | 0.0 | 0.0 | 0.00 | 0.00 | 0.00 | 86 | 1041.1 |
| 20260831015017 | 74 | 202 | 0.0 | 0.0 | 0.00 | 0.00 | 0.00 | 86 | 1041.2 |
| 20260831014016 | 74 | 202 | 0.0 | 0.0 | 0.00 | 0.00 | 0.00 | 86 | 1041.3 |
| 20260831011016 | 74 | 202 | 0.0 | 0.0 | 0.00 | 0.00 | 0.00 | 84 | 1041.1 |
| 20260831010017 | 74 | 202 | 0.0 | 0.0 | 0.00 | 0.00 | 0.00 | 85 | 1041.2 |
| 20260831005916 | 74 | 202 | 0.0 | 0.0 | 0.00 | 0.00 | 0.00 | 85 | 1041.1 |
| 20260831004917 | 74 | 202 | 0.0 | 0.0 | 0.00 | 0.00 | 0.00 | 85 | 1041.1 |
| 20260831004016 | 74 | 202 | 0.0 | 0.0 | 0.00 | 0.00 | 0.00 | 85 | 1041.1 |
| 20260831002018 | 75 | 202 | 0.0 | 0.0 | 0.00 | 0.00 | 0.00 | 83 | 1040.8 |
| 20260831000018 | 75 | 202 | 0.0 | 0.0 | 0.00 | 0.00 | 0.00 | 81 | 1040.5 |
| 20260830235015 | 75 | 202 | 0.0 | 0.0 | 0.00 | 0.00 | 0.00 | 79 | 1040.6 |
| 20260830234916 | 75 | 202 | 0.0 | 0.0 | 0.00 | 0.00 | 0.00 | 79 | 1040.7 |
| 20260830233917 | 76 | 202 | 0.0 | 0.0 | 0.00 | 0.00 | 0.00 | 79 | 1040.7 |
| 20260830232915 | 76 | 202 | 0.0 | 0.0 | 0.00 | 0.00 | 0.00 | 79 | 1040.7 |
| 20260830231917 | 77 | 202 | 0.0 | 0.0 | 0.00 | 0.00 | 0.00 | 78 | 1040.8 |
| 20260830230918 | 77 | 202 | 0.0 | 0.0 | 0.00 | 0.00 | 0.00 | 78 | 1040.9 |
| 20260830230817 | 77 | 202 | 0.0 | 0.0 | 0.00 | 0.00 | 0.00 | 78 | 1040.9 |
| 20260830225818 | 78 | 202 | 0.0 | 0.0 | 0.00 | 0.00 | 0.00 | 75 | 1040.9 |
| 20260830224818 | 78 | 202 | 0.0 | 0.0 | 0.00 | 0.00 | 0.00 | 75 | 1040.6 |
| 20260830223817 | 79 | 202 | 0.0 | 0.0 | 0.00 | 0.00 | 0.00 | 76 | 1040.7 |
| 20260830222915 | 79 | 202 | 0.0 | 0.0 | 0.00 | 0.00 | 0.00 | 76 | 1040.5 |
| 20260830221917 | 79 | 202 | 0.0 | 0.0 | 0.00 | 0.00 | 0.00 | 74 | 1040.6 |
| 20260830220823 | 80 | 202 | 0.0 | 0.0 | 0.00 | 0.00 | 0.00 | 73 | 1040.7 |
| 20260830215817 | 80 | 202 | 0.0 | 0.0 | 0.00 | 0.00 | 0.00 | 74 | 1040.5 |
| 20260830214817 | 80 | 202 | 0.0 | 0.0 | 0.00 | 0.00 | 0.00 | 74 | 1040.4 |
| 20260830214719 | 80 | 202 | 0.0 | 0.0 | 0.00 | 0.00 | 0.00 | 73 | 1040.4 |
| 20260830213816 | 80 | 202 | 0.0 | 0.0 | 0.00 | 0.00 | 0.00 | 72 | 1040.4 |
| 20260830212916 | 80 | 180 | 0.0 | 0.0 | 0.00 | 0.00 | 0.00 | 72 | 1040.4 |
| 20260830210917 | 81 | 180 | 0.0 | 0.0 | 0.00 | 0.00 | 0.00 | 71 | 1040.4 |
| 20260830205919 | 81 | 270 | 0.0 | 0.0 | 0.00 | 0.00 | 0.00 | 71 | 1040.5 |
| 20260830204918 | 81 | 360 | 0.0 | 0.0 | 0.00 | 0.00 | 0.00 | 70 | 1040.6 |
| 20260830203916 | 81 | 360 | 0.0 | 0.0 | 0.00 | 0.00 | 0.00 | 69 | 1040.6 |
| 20260830202916 | 82 | 225 | 0.0 | 0.0 | 0.00 | 0.00 | 0.00 | 66 | 1040.5 |
| 20260830201916 | 82 | 225 | 0.0 | 0.0 | 0.00 | 0.00 | 0.00 | 67 | 1040.5 |
| 20260830201819 | 81 | 225 | 0.0 | 0.0 | 0.00 | 0.00 | 0.00 | 68 | 1040.5 |
| 20260830200916 | 80 | 360 | 0.0 | 0.0 | 0.00 | 0.00 | 0.00 | 69 | 1040.7 |
| 20260830200818 | 80 | 360 | 0.0 | 0.0 | 0.00 | 0.00 | 0.00 | 69 | 1040.7 |
| 20260830195817 | 80 | 217 | 0.0 | 0.0 | 0.00 | 0.00 | 0.00 | 69 | 1041.0 |
| 20260830194817 | 82 | 360 | 0.0 | 0.0 | 0.00 | 0.00 | 0.00 | 67 | 1041.1 |
| 20260830193818 | 83 | 360 | 0.0 | 2.0 | 0.00 | 0.00 | 0.00 | 63 | 1040.9 |
| 20260830192916 | 84 | 360 | 0.0 | 1.0 | 0.00 | 0.00 | 0.00 | 62 | 1041.2 |
| 20260830191016 | 84 | 45 | 0.0 | 0.0 | 0.00 | 0.00 | 0.00 | 63 | 1041.3 |
| 20260830185116 | 84 | 360 | 0.0 | 0.0 | 0.00 | 0.00 | 0.00 | 65 | 1041.6 |
| 20260830183116 | 82 | 360 | 0.0 | 0.0 | 0.00 | 0.00 | 0.00 | 67 | 1041.8 |
| 20260830182116 | 81 | 9 | 0.0 | 2.0 | 0.00 | 0.00 | 0.00 | 69 | 1042.0 |
| 20260830181117 | 80 | 22 | 0.0 | 0.0 | 0.00 | 0.00 | 0.00 | 70 | 1042.1 |
| 20260830175218 | 80 | 119 | 0.0 | 0.0 | 0.00 | 0.00 | 0.00 | 69 | 1042.4 |
| 20260830174216 | 80 | 135 | 0.0 | 0.0 | 0.00 | 0.00 | 0.00 | 69 | 1042.6 |
| 20260830172315 | 79 | 315 | 0.0 | 0.0 | 0.00 | 0.00 | 0.00 | 73 | 1042.7 |
| 20260830170317 | 80 | 315 | 0.0 | 0.0 | 0.00 | 0.00 | 0.00 | 70 | 1043.1 |
| 20260830165416 | 81 | 360 | 0.0 | 0.0 | 0.00 | 0.00 | 0.00 | 69 | 1043.2 |
| 20260830163318 | 77 | 315 | 0.0 | 0.0 | 0.00 | 0.00 | 0.00 | 76 | 1043.1 |
| 20260830163217 | 77 | 315 | 0.0 | 0.0 | 0.00 | 0.00 | 0.00 | 76 | 1043.1 |
| 20260830162216 | 78 | 360 | 0.0 | 0.0 | 0.00 | 0.00 | 0.00 | 74 | 1043.5 |